ProjectID,Date,Electric Generation,Electric Utility Import,Facility Electric Load
,YYYY-MM-DD,kW,kW,kW
1158,2019-11-11,62.87647826086957,141.54891304347825,204.4253913043478
1158,2019-11-12,81.33504166666667,198.9375,280.27254166666665
1158,2019-11-13,122.102375,167.578125,289.6805
1158,2019-11-14,84.7075,197.125,281.8325
1158,2019-11-15,118.05612500000001,156.36458333333334,274.4207083333333
1158,2019-11-16,64.206,136.09895833333334,200.30495833333333
1158,2019-11-17,64.23295833333333,147.61979166666666,211.85275
1158,2019-11-18,87.85425,195.28125,283.1355
1158,2019-11-19,112.45325000000001,138.5625,251.01575000000003
1158,2019-11-20,86.82441666666666,127.11979166666667,213.94420833333334
1158,2019-11-21,102.90641666666666,167.703125,270.60954166666664
1158,2019-11-22,59.15225,147.19270833333334,206.34495833333335
1158,2019-11-23,97.42041666666667,174.77083333333334,272.19125
1158,2019-11-24,58.40133333333333,136.90104166666666,195.30237499999998
1158,2019-11-25,87.82279166666666,183.5,271.32279166666666
1158,2019-11-26,72.46724999999999,136.28645833333334,208.75370833333335
1158,2019-11-27,103.514875,169.00520833333334,272.52008333333333
1158,2019-11-28,81.21758333333334,177.08333333333334,258.3009166666667
1158,2019-11-29,59.2945,162.390625,221.685125
1158,2019-11-30,60.161,150.328125,210.489125
1158,2019-12-01,60.7455,100.09895833333333,160.84445833333334
1158,2019-12-02,60.69804166666666,87.82291666666667,148.52095833333334
1158,2019-12-03,84.38466666666666,186.96354166666666,271.34820833333333
1158,2019-12-04,125.71366666666667,169.015625,294.72929166666665
1158,2019-12-05,125.14766666666667,162.46354166666666,287.6112083333333
1158,2019-12-06,123.47699999999999,161.82291666666666,285.29991666666666
1158,2019-12-07,124.59425,159.83854166666666,284.4327916666667
1158,2019-12-08,125.05770833333334,152.11979166666666,277.1775
1158,2019-12-09,120.92083333333333,164.52083333333334,285.44166666666666
1158,2019-12-10,117.0225,157.59375,274.61625
1158,2019-12-11,123.47837500000001,162.52604166666666,286.00441666666666
1158,2019-12-12,125.40516666666667,162.375,287.7801666666667
1158,2019-12-13,123.33379166666667,170.578125,293.9119166666667
1158,2019-12-14,118.74679166666665,155.828125,274.57491666666664
1158,2019-12-15,120.17483333333332,158.82291666666666,278.99775
1158,2019-12-16,123.48758333333335,166.56770833333334,290.0552916666667
1158,2019-12-17,124.87254166666666,172.88020833333334,297.75275
1158,2019-12-18,124.77358333333332,167.19270833333334,291.9662916666667
1158,2019-12-19,117.135125,139.375,256.510125
1158,2019-12-20,95.42433333333334,120.13541666666667,215.55975
1158,2019-12-21,98.2325,187.52083333333334,285.75333333333333
1158,2019-12-22,81.675,169.78645833333334,251.46145833333333
1158,2019-12-23,74.64491666666667,147.453125,222.0980416666667
1158,2019-12-24,60.508,186.38020833333334,246.88820833333335
1158,2019-12-25,62.100625,193.77083333333334,255.87145833333335
1158,2019-12-26,59.003375,154.50520833333334,213.50858333333335
1158,2019-12-27,78.20070833333334,179.15625,257.35695833333335
1158,2019-12-28,72.59941666666667,153.61458333333334,226.214
1158,2019-12-29,29.498166666666666,80.796875,110.29504166666666
1158,2019-12-30,-0.3404583333333333,63.96875,63.62829166666667
1158,2019-12-31,-0.2227083333333333,65.671875,65.44916666666667
1158,2020-01-01,-0.22595833333333334,66.74479166666667,66.51883333333333
1158,2020-01-02,47.48670833333333,159.33854166666666,206.82524999999998
1158,2020-01-03,62.152166666666666,146.171875,208.32404166666666
1158,2020-01-04,60.55654166666667,146.50520833333334,207.06175000000002
1158,2020-01-05,60.51954166666667,144.58854166666666,205.10808333333333
1158,2020-01-06,60.80950000000001,154.26041666666666,215.06991666666667
1158,2020-01-07,60.5545,149.27604166666666,209.83054166666665
1158,2020-01-08,60.828125,151.33333333333334,212.16145833333334
1158,2020-01-09,62.214375,147.90104166666666,210.11541666666665
1158,2020-01-10,60.89870833333333,161.10416666666666,222.002875
1158,2020-01-11,58.84604166666667,166.59375,225.43979166666668
1158,2020-01-12,21.166,84.64583333333333,105.81183333333333
1158,2020-01-13,46.254,152.03125,198.28525
1158,2020-01-14,60.18812500000001,144.74479166666666,204.93291666666667
1158,2020-01-15,59.624500000000005,150.84375,210.46825
1158,2020-01-16,59.135999999999996,149.95833333333334,209.09433333333334
1158,2020-01-17,94.117125,190.21354166666666,284.3306666666667
1158,2020-01-18,88.91337499999999,80.43229166666667,169.34566666666666
1158,2020-01-19,61.615874999999996,151.265625,212.8815
1158,2020-01-20,104.28833333333334,157.328125,261.61645833333336
1158,2020-01-21,87.42233333333333,128.99479166666666,216.417125
1158,2020-01-22,84.68016666666666,135.93229166666666,220.61245833333334
1158,2020-01-23,82.57504166666666,132.671875,215.24691666666666
1158,2020-01-24,72.261375,151.16145833333334,223.42283333333336
1158,2020-01-25,60.75745833333334,153.73958333333334,214.4970416666667
1158,2020-01-26,59.21283333333333,151.56770833333334,210.78054166666666
1158,2020-01-27,59.205666666666666,151.66145833333334,210.86712500000002
1158,2020-01-28,59.24795833333334,154.3125,213.56045833333334
1158,2020-01-29,59.796416666666666,155.328125,215.12454166666666
1158,2020-01-30,60.46641666666667,160.96875,221.43516666666667
1158,2020-01-31,56.64670833333333,139.375,196.02170833333332
1158,2020-02-01,71.62545833333333,143.25,214.8754583333333
1158,2020-02-02,61.420791666666666,150.77083333333334,212.19162500000002
1158,2020-02-03,61.39545833333333,156.05208333333334,217.44754166666667
1158,2020-02-04,60.495374999999996,163.08333333333334,223.57870833333334
1158,2020-02-05,61.01779166666666,151.13541666666666,212.1532083333333
1158,2020-02-06,61.8225,137.27604166666666,199.09854166666665
1158,2020-02-07,61.52533333333333,164.59375,226.11908333333332
1158,2020-02-08,61.268791666666665,148.13541666666666,209.40420833333332
1158,2020-02-09,60.666875000000005,153.52083333333334,214.18770833333335
1158,2020-02-10,60.34883333333334,148.61458333333334,208.9634166666667
1158,2020-02-11,94.18475000000001,175.41145833333334,269.5962083333334
1158,2020-02-12,109.99054166666667,155.52083333333334,265.51137500000004
1158,2020-02-13,108.36179166666666,167.93229166666666,276.29408333333333
1158,2020-02-14,107.02866666666667,166.96875,273.99741666666665
1158,2020-02-15,105.05079166666667,165.36458333333334,270.41537500000004
1158,2020-02-16,108.58220833333333,157.296875,265.8790833333333
1158,2020-02-17,108.50875,148.890625,257.399375
1158,2020-02-18,107.335875,160.40625,267.742125
1158,2020-02-19,106.96249999999999,155.49479166666666,262.45729166666666
1158,2020-02-20,107.12491666666666,165.99479166666666,273.11970833333334
1158,2020-02-21,107.04295833333333,165.328125,272.37108333333333
1158,2020-02-22,108.49341666666668,154.69270833333334,263.186125
1158,2020-02-23,107.283125,153.34375,260.626875
1158,2020-02-24,106.09529166666665,154.52083333333334,260.616125
1158,2020-02-25,114.396,145.97395833333334,260.36995833333333
1158,2020-02-26,119.815375,144.078125,263.8935
1158,2020-02-27,120.38791666666667,141.70833333333334,262.09625
1158,2020-02-28,120.42245833333334,147.65104166666666,268.07349999999997
1158,2020-02-29,120.6965,153.984375,274.680875
1158,2020-03-01,121.24854166666667,151.625,272.87354166666665
1158,2020-03-02,125.85733333333333,136.89583333333334,262.7531666666667
1158,2020-03-03,128.40741666666665,132.88541666666666,261.2928333333333
1158,2020-03-04,128.76391666666666,128.74479166666666,257.5087083333333
1158,2020-03-05,127.39870833333333,131.36458333333334,258.76329166666665
1158,2020-03-06,126.908125,141.02083333333334,267.92895833333336
1158,2020-03-07,125.39337499999999,133.78645833333334,259.17983333333336
1158,2020-03-08,119.61866666666667,125.50520833333333,245.123875
1158,2020-03-09,128.29883333333333,128.97916666666666,257.278
1158,2020-03-10,128.95145833333333,128.30208333333334,257.2535416666667
1158,2020-03-11,128.56783333333334,133.30729166666666,261.875125
1158,2020-03-12,127.91070833333333,142.13020833333334,270.0409166666667
1158,2020-03-13,128.0175,135.90625,263.92375000000004
1158,2020-03-14,127.39179166666666,128.0,255.39179166666668
1158,2020-03-15,127.37,129.49479166666666,256.86479166666663
1158,2020-03-16,126.42870833333335,146.82291666666666,273.251625
1158,2020-03-17,127.48491666666666,142.94270833333334,270.42762500000003
1158,2020-03-18,127.57454166666668,132.77604166666666,260.35058333333336
1158,2020-03-19,127.52066666666667,137.55729166666666,265.0779583333333
1158,2020-03-20,128.208,129.18229166666666,257.39029166666666
1158,2020-03-21,128.07858333333334,127.35416666666667,255.43275
1158,2020-03-22,126.04841666666665,130.90625,256.95466666666664
1158,2020-03-23,119.26283333333333,160.10416666666666,279.36699999999996
1158,2020-03-24,126.60966666666667,135.16666666666666,261.77633333333335
1158,2020-03-25,127.28020833333333,141.375,268.65520833333335
1158,2020-03-26,127.121375,130.27083333333334,257.3922083333333
1158,2020-03-27,128.39837500000002,123.625,252.02337500000002
1158,2020-03-28,128.32408333333333,133.1875,261.5115833333333
1158,2020-03-29,127.50870833333333,136.95833333333334,264.46704166666666
1158,2020-03-30,128.22287500000002,131.02083333333334,259.24370833333336
1158,2020-03-31,127.08391666666667,132.15625,259.24016666666665
1158,2020-04-01,127.6545,128.08333333333334,255.73783333333336
1158,2020-04-02,127.09358333333334,124.88541666666667,251.979
1158,2020-04-03,125.42895833333334,131.47916666666666,256.908125
1158,2020-04-04,128.29020833333334,123.10416666666667,251.39437500000003
1158,2020-04-05,128.24570833333334,121.48958333333333,249.73529166666668
1158,2020-04-06,128.78537500000002,118.36458333333333,247.14995833333336
1158,2020-04-07,128.6315,120.45833333333333,249.08983333333333
1158,2020-04-08,127.84366666666666,125.88541666666667,253.72908333333334
1158,2020-04-09,127.134,127.45833333333333,254.59233333333333
1158,2020-04-10,125.55754166666667,130.125,255.68254166666668
1158,2020-04-11,125.87237499999999,123.41666666666667,249.28904166666666
1158,2020-04-12,126.967,114.96875,241.93574999999998
1158,2020-04-13,128.29483333333334,130.64583333333334,258.9406666666667
1158,2020-04-14,127.36216666666667,119.57291666666667,246.93508333333335
1158,2020-04-15,127.11808333333333,122.59375,249.71183333333335
1158,2020-04-16,126.575125,122.5625,249.137625
1158,2020-04-17,126.256125,127.07291666666667,253.32904166666668
1158,2020-04-18,128.53833333333333,132.10416666666666,260.6425
1158,2020-04-19,128.46241666666666,122.58333333333333,251.04575
1158,2020-04-20,128.47325,119.54166666666667,248.0149166666667
1158,2020-04-21,5.368833333333334,4.677083333333333,10.045916666666667
1158,2020-04-22,121.84691666666667,117.83333333333333,239.68025
1158,2020-04-23,128.62558333333334,128.3125,256.93808333333334
1158,2020-04-24,128.73341666666667,133.78125,262.5146666666667
1158,2020-04-25,75.852,166.39583333333334,242.24783333333335
1158,2020-04-26,64.471,167.03125,231.50225
1158,2020-04-27,64.50770833333333,168.29166666666666,232.799375
1158,2020-04-28,64.44654166666668,184.22916666666666,248.67570833333332
1158,2020-04-29,93.12416666666667,164.20833333333334,257.3325
1158,2020-04-30,128.73129166666666,128.28125,257.01254166666666
1158,2020-05-01,128.826375,121.22916666666667,250.05554166666667
1158,2020-05-02,128.78900000000002,111.10416666666667,239.89316666666667
1158,2020-05-03,128.41716666666667,109.8125,238.22966666666667
1158,2020-05-04,125.89383333333335,117.07291666666667,242.96675000000002
1158,2020-05-05,5.361041666666666,4.572916666666667,9.933958333333333
1158,2020-05-06,0.0,0.0,0.0
1158,2020-05-07,0.0,0.0,0.0
1158,2020-05-08,122.07483333333333,120.97916666666667,243.054
1158,2020-05-09,129.10633333333334,122.03125,251.13758333333334
1158,2020-05-10,128.90591666666668,115.1875,244.09341666666668
1158,2020-05-11,126.34491666666666,120.14583333333333,246.49075
1158,2020-05-12,128.911375,118.48958333333333,247.40095833333334
1158,2020-05-13,128.9725,114.9375,243.91
1158,2020-05-14,129.09766666666667,114.13541666666667,243.23308333333335
1158,2020-05-15,100.28275000000001,144.8125,245.09525000000002
1158,2020-05-16,64.27983333333333,180.72916666666666,245.009
1158,2020-05-17,64.30983333333333,176.73958333333334,241.04941666666667
1158,2020-05-18,64.27979166666667,170.02083333333334,234.30062500000003
1158,2020-05-19,64.27620833333333,179.60416666666666,243.880375
1158,2020-05-20,64.26195833333334,180.625,244.88695833333333
1158,2020-05-21,64.36833333333333,182.54166666666666,246.90999999999997
1158,2020-05-22,64.30024999999999,183.57291666666666,247.87316666666663
1158,2020-05-23,64.30845833333333,199.17708333333334,263.4855416666667
1158,2020-05-24,64.3505,187.6875,252.038
1158,2020-05-25,64.40554166666666,190.67708333333334,255.082625
1158,2020-05-26,64.31400000000001,106.59375,170.90775000000002
1158,2020-05-27,64.45166666666667,0.0,64.45166666666667
1158,2020-05-28,64.49241666666667,0.0,64.49241666666667
1158,2020-05-29,64.48620833333334,0.0,64.48620833333334
1158,2020-05-30,64.44879166666666,0.0,64.44879166666666
1158,2020-05-31,64.40933333333334,28.197916666666668,92.60725000000001
1158,2020-06-01,64.50075,57.9375,122.43825
1158,2020-06-02,63.717625,49.09375,112.811375
1158,2020-06-03,64.61216666666667,33.375,97.98716666666667
1158,2020-06-04,64.67066666666666,0.0,64.67066666666666
1158,2020-06-05,64.6225,0.0,64.6225
1158,2020-06-06,64.601375,0.0,64.601375
1158,2020-06-07,64.62520833333333,0.0,64.62520833333333
1158,2020-06-08,64.66425,10.1875,74.85175
1158,2020-06-09,64.62229166666667,0.0,64.62229166666667
1158,2020-06-10,64.605,0.0,64.605
1158,2020-06-11,64.52912500000001,0.0,64.52912500000001
1158,2020-06-12,64.61645833333334,0.0,64.61645833333334
1158,2020-06-13,64.59075,0.0,64.59075
1158,2020-06-14,64.57870833333332,0.0,64.57870833333332
1158,2020-06-15,64.54154166666667,0.0,64.54154166666667
1158,2020-06-16,64.598875,0.0,64.598875
1158,2020-06-17,64.56591666666667,0.0,64.56591666666667
1158,2020-06-18,100.99104166666666,0.0,100.99104166666666
1158,2020-06-19,129.24070833333334,0.0,129.24070833333334
1158,2020-06-20,129.63654166666666,0.0,129.63654166666666
1158,2020-06-21,129.08654166666668,0.0,129.08654166666668
1158,2020-06-22,128.53379166666667,9.177083333333334,137.71087500000002
1158,2020-06-23,128.99825,0.0,128.99825
1158,2020-06-24,129.157,0.0,129.157
1158,2020-06-25,128.93775,0.0,128.93775
1158,2020-06-26,128.88166666666666,0.0,128.88166666666666
1158,2020-06-27,129.24699999999999,0.0,129.24699999999999
1158,2020-06-28,128.64770833333333,0.0,128.64770833333333
1158,2020-06-29,126.398625,0.0,126.398625
1158,2020-06-30,5.403333333333333,0.0,5.403333333333333
1158,2020-07-01,0.0,0.0,0.0
1158,2020-07-02,0.0,0.0,0.0
1158,2020-07-03,0.0,0.0,0.0
1158,2020-07-04,0.0,0.0,0.0
1158,2020-07-05,0.0,0.0,0.0
1158,2020-07-06,0.0,0.0,0.0
1158,2020-07-07,0.0,0.0,0.0
1158,2020-07-08,0.0,0.0,0.0
1158,2020-07-09,0.0,0.0,0.0
1158,2020-07-10,0.0,0.0,0.0
1158,2020-07-11,0.0,0.0,0.0
1158,2020-07-12,0.0,0.0,0.0
1158,2020-07-13,0.0,0.0,0.0
1158,2020-07-14,0.0,0.0,0.0
1158,2020-07-15,0.0,0.0,0.0
1158,2020-07-16,0.0,0.0,0.0
1158,2020-07-17,0.0,0.0,0.0
1158,2020-07-18,0.0,0.0,0.0
1158,2020-07-19,0.0,0.0,0.0
1158,2020-07-20,0.0,0.0,0.0
1158,2020-07-21,0.0,0.0,0.0
1158,2020-07-22,0.0,0.0,0.0
1158,2020-07-23,0.0,0.0,0.0
1158,2020-07-24,0.0,0.0,0.0
1158,2020-07-25,0.0,0.0,0.0
1158,2020-07-26,0.0,0.0,0.0
1158,2020-07-27,0.0,0.0,0.0
1158,2020-07-28,0.0,0.0,0.0
1158,2020-07-29,0.0,0.0,0.0
1158,2020-07-30,0.0,0.0,0.0
1158,2020-07-31,78.79541666666667,0.0,78.79541666666667
1158,2020-08-01,128.90158333333332,0.0,128.90158333333332
1158,2020-08-02,128.30891666666668,0.0,128.30891666666668
1158,2020-08-03,124.890125,0.0,124.890125
1158,2020-08-04,129.06983333333332,0.0,129.06983333333332
1158,2020-08-05,128.49891666666667,0.0,128.49891666666667
1158,2020-08-06,126.30062500000001,0.0,126.30062500000001
1158,2020-08-07,125.94324999999999,0.0,125.94324999999999
1158,2020-08-08,124.64704166666667,0.0,124.64704166666667
1158,2020-08-09,123.68258333333334,0.0,123.68258333333334
1158,2020-08-10,122.147625,0.0,122.147625
1158,2020-08-11,122.26391666666666,0.0,122.26391666666666
1158,2020-08-12,122.789625,0.0,122.789625
1158,2020-08-13,123.77854166666667,0.0,123.77854166666667
1158,2020-08-14,123.30029166666667,0.0,123.30029166666667
1158,2020-08-15,123.38133333333333,0.0,123.38133333333333
1158,2020-08-16,125.62229166666667,0.0,125.62229166666667
1158,2020-08-17,122.73641666666667,0.0,122.73641666666667
1158,2020-08-18,124.95995833333335,0.0,124.95995833333335
1158,2020-08-19,124.90129166666667,0.0,124.90129166666667
1158,2020-08-20,125.22454166666667,0.0,125.22454166666667
1158,2020-08-21,124.09974999999999,0.0,124.09974999999999
1158,2020-08-22,123.01858333333332,0.0,123.01858333333332
1158,2020-08-23,123.10491666666667,0.0,123.10491666666667
1158,2020-08-24,122.38925,0.0,122.38925
1158,2020-08-25,122.43091666666668,0.0,122.43091666666668
1158,2020-08-26,124.49991666666666,0.0,124.49991666666666
1158,2020-08-27,123.41595833333334,0.0,123.41595833333334
1158,2020-08-28,123.38820833333334,0.0,123.38820833333334
1158,2020-08-29,123.805875,0.0,123.805875
1158,2020-08-30,124.47445833333335,0.0,124.47445833333335
1158,2020-08-31,125.28441666666667,0.0,125.28441666666667
1158,2020-09-01,124.957875,0.0,124.957875
1158,2020-09-02,124.51795833333334,0.0,124.51795833333334
1158,2020-09-03,123.3315,0.0,123.3315
1158,2020-09-04,120.851375,0.0,120.851375
1158,2020-09-05,125.21270833333334,0.0,125.21270833333334
1158,2020-09-06,124.93762500000001,0.0,124.93762500000001
1158,2020-09-07,122.12933333333332,0.0,122.12933333333332
1158,2020-09-08,124.40241666666667,0.0,124.40241666666667
1158,2020-09-09,124.17983333333332,0.0,124.17983333333332
1158,2020-09-10,123.96591666666666,0.0,123.96591666666666
1158,2020-09-11,79.01220833333333,0.0,79.01220833333333
1158,2020-09-12,64.04695833333334,0.0,64.04695833333334
1158,2020-09-13,63.273291666666665,0.0,63.273291666666665
1158,2020-09-14,62.374291666666664,0.0,62.374291666666664
1158,2020-09-15,64.70325,0.0,64.70325
1158,2020-09-16,64.42208333333333,0.0,64.42208333333333
1158,2020-09-17,63.575208333333336,0.0,63.575208333333336
1158,2020-09-18,64.34037500000001,0.0,64.34037500000001
1158,2020-09-19,90.22633333333333,40.760416666666664,130.98675
1158,2020-09-20,129.1225,85.75,214.8725
1158,2020-09-21,126.45204166666667,75.51041666666667,201.96245833333336
1158,2020-09-22,128.12441666666666,76.82291666666667,204.94733333333335
1158,2020-09-23,75.91320833333333,70.66666666666667,146.57987500000002
1158,2020-09-24,37.79479166666667,0.0,37.79479166666667
1158,2020-09-25,64.44929166666667,0.0,64.44929166666667
1158,2020-09-26,64.53216666666667,0.0,64.53216666666667
1158,2020-09-27,64.53,0.0,64.53
1158,2020-09-28,91.00125000000001,0.0,91.00125000000001
1158,2020-09-29,123.04345833333333,0.0,123.04345833333333
1158,2020-09-30,123.56595833333334,7.59375,131.15970833333336
1158,2020-10-01,102.363,71.35416666666667,173.71716666666669
1158,2020-10-02,110.871875,35.385416666666664,146.25729166666667
1158,2020-10-03,108.52199999999999,150.32291666666666,258.8449166666667
1158,2020-10-04,64.54587500000001,48.072916666666664,112.61879166666668
1158,2020-10-05,64.54470833333333,44.885416666666664,109.430125
1158,2020-10-06,86.01474999999999,62.666666666666664,148.68141666666665
1158,2020-10-07,125.15283333333333,69.38541666666667,194.53825
1158,2020-10-08,126.57516666666668,76.8125,203.3876666666667
1158,2020-10-09,127.26687500000001,74.94791666666667,202.21479166666668
1158,2020-10-10,124.89541666666666,161.89583333333334,286.79125
1158,2020-10-11,124.43995833333334,114.64583333333333,239.08579166666667
1158,2020-10-12,128.68408333333335,77.09375,205.77783333333335
1158,2020-10-13,129.01354166666667,69.47916666666667,198.49270833333333
1158,2020-10-14,127.41133333333333,64.98958333333333,192.40091666666666
1158,2020-10-15,125.06170833333334,76.76041666666667,201.82212500000003
1158,2020-10-16,78.00670833333334,129.63541666666666,207.642125
1158,2020-10-17,64.535,177.41666666666666,241.95166666666665
1158,2020-10-18,64.524375,150.77083333333334,215.29520833333333
1158,2020-10-19,64.42245833333332,163.98958333333334,228.41204166666665
1158,2020-10-20,64.43016666666666,158.32291666666666,222.75308333333334
1158,2020-10-21,64.33629166666667,162.36458333333334,226.700875
1158,2020-10-22,64.35658333333333,157.23958333333334,221.59616666666668
1158,2020-10-23,64.38370833333333,183.84375,248.22745833333335
1158,2020-10-24,64.31,185.86458333333334,250.17458333333335
1158,2020-10-25,64.43458333333334,145.03125,209.46583333333334
1158,2020-10-26,64.48225000000001,156.90625,221.38850000000002
1158,2020-10-27,64.44429166666667,158.34375,222.7880416666667
1158,2020-10-28,64.46508333333334,166.875,231.34008333333333
1158,2020-10-29,64.14916666666666,127.6875,191.83666666666664
1158,2020-10-30,64.49070833333333,126.69791666666667,191.188625
1158,2020-10-31,64.588125,162.92708333333334,227.51520833333336
1158,2020-11-01,55.67066666666667,123.35416666666667,179.02483333333333
1158,2020-11-02,49.419999999999995,173.33333333333334,222.75333333333333
1158,2020-11-03,64.550125,161.3125,225.86262499999998
1158,2020-11-04,85.28558333333334,178.20833333333334,263.4939166666667
1158,2020-11-05,122.34316666666666,137.39583333333334,259.73900000000003
1158,2020-11-06,108.60012499999999,148.80208333333334,257.4022083333333
1158,2020-11-07,76.850125,165.72916666666666,242.57929166666668
1158,2020-11-08,61.888708333333334,148.16666666666666,210.055375
1158,2020-11-09,93.20220833333333,158.63541666666666,251.837625
1158,2020-11-10,119.883625,141.16666666666666,261.0502916666667
1158,2020-11-11,74.75479166666666,133.9375,208.69229166666668
1158,2020-11-12,58.19070833333333,156.64583333333334,214.83654166666668
1158,2020-11-13,60.10637500000001,171.75,231.856375
1158,2020-11-14,59.889,156.125,216.014
1158,2020-11-15,59.859625,144.0,203.859625
1158,2020-11-16,59.684875,144.88541666666666,204.57029166666666
1158,2020-11-17,60.212208333333336,143.28125,203.49345833333334
1158,2020-11-18,41.752833333333335,130.69791666666666,172.45075
1158,2020-11-19,1.5222083333333334,64.97916666666667,66.50137500000001
1158,2020-11-20,-0.3425416666666667,62.96875,62.62620833333333
1158,2020-11-21,55.32341666666667,185.52083333333334,240.84425000000002
1158,2020-11-22,96.35995833333334,166.15625,262.51620833333334
1158,2020-11-23,77.46583333333334,181.65625,259.1220833333333
1158,2020-11-24,68.53433333333334,146.67708333333334,215.21141666666668
1158,2020-11-25,64.71083333333333,156.79166666666666,221.5025
1158,2020-11-26,57.32445833333333,145.0,202.32445833333333
1158,2020-11-27,59.014916666666664,174.78125,233.79616666666666
1158,2020-11-28,66.49454166666666,177.88541666666666,244.37995833333332
1158,2020-11-29,64.47345833333334,143.63541666666666,208.108875
1158,2020-11-30,64.340625,111.1875,175.528125
1158,2020-12-01,64.92029166666667,137.20833333333334,202.128625
1158,2020-12-02,67.135,133.69791666666666,200.83291666666668
1158,2020-12-03,66.56179166666666,149.11458333333334,215.676375
1158,2020-12-04,64.439125,115.28125,179.720375
1158,2020-12-05,65.74958333333333,139.82291666666666,205.5725
1158,2020-12-06,64.54395833333334,140.75,205.29395833333334
1158,2020-12-07,64.55495833333333,151.59375,216.14870833333333
1158,2020-12-08,64.57354166666667,81.52083333333333,146.094375
1158,2020-12-09,66.63154166666666,106.59375,173.22529166666666
1158,2020-12-10,57.211125,115.20833333333333,172.41945833333332
1158,2020-12-11,59.79116666666667,161.625,221.41616666666667